マクノート彗星

C/2005 L3 ( McNaught )

English version
Home page
Updated on December 15, 2011

---------------------------------------------------------------------

・ プロフィール

発見日 2005年6月3日
発見光度 17.7等
発見者 R. H. McNaught (Siding Spring)

・ 写真集

・ 軌道要素

Epoch 2008 Jan. 15.0 TT = JDT 2454480.5
T 2008 Jan. 16.00598 TT                                 MPC
q   5.5932690            (2000.0)            P               Q
z  +0.0000161      Peri.   47.09695     -0.30837270     -0.72516362
 +/-0.0000001      Node   288.73911     -0.94495798     +0.30792621
e   0.9999098      Incl.  139.44875     +0.10936495     +0.61588893
From 4835 observations 2004 July 16-2011 Oct. 28, mean residual 0".5.

・ 星図

・ 光度変化

        m1 = 1.0 + 5 logΔ + 12.0 log r(t - 250)  [   ,250]  (              〜2008年 9月22日)
        m1 = 4.0 + 5 logΔ +  8.0 log r(t - 250)  [250,   ]  (2008年 9月22日〜              )

---------------------------------------------------------------------

軌道要素はM.P.E.C. 2011-W16に掲載されたものです。
星図は StellaNavigator Ver.2.0 for Windows (アストロアーツ編著 / アスキー出版局刊) で作成したものです。
光度グラフはComet for Windowsで作成したものです。

---------------------------------------------------------------------

Copyright(C) Seiichi Yoshida (comet@aerith.net). All rights reserved.